Regional Weather Roundup
Issued by NWS

Home | Current Version | Previous Version | Text Only | Print | Product List | Glossary On
Versions: 1 2 3 4 5 6 7 8 9 10 11 12 13 14 15 16 17 18 19 20 21 22 23 24 25 26 27 28 29 30 31 32 33 34 35 36 37 38 39 40 41 42 43 44 45 46 47 48 49 50
000
ASUS44 KLIX 290711
RWRLA
LOUISIANA WEATHER ROUNDUP
NATIONAL WEATHER SERVICE NEW ORLEANS LA
200 AM CDT WED JUL 29 2015

NOTE: "FAIR" INDICATES FEW OR NO CLOUDS BELOW 12,000 FEET WITH NO
      SIGNIFICANT WEATHER AND/OR OBSTRUCTIONS TO VISIBILITY.
      SKY/WX - SKY CONDITION AND SIGNIFICANT WEATHER.
      TMP - AIR TEMPERATURE.    DP   - DEWPOINT TEMPERATURE.
      RH  - RELATIVE HUMIDITY.  PRES - PRESSURE.
      HX  - HEAT INDEX.         WCI  - WIND CHILL INDEX.

*  THESE STATIONS ARE NOT NWS OR FAA STATIONS AND ARE NOT UNDER
   NWS QUALITY CONTROL.

LAZ040-048-061>063-065-066-069-290800-
SOUTHEAST LOUISIANA

CITY           SKY/WX    TMP DP  RH WIND       PRES   REMARKS
N.O. AUDUBON     N/A     84  78  83 MISG        N/A  HX  95
N.O. INTL ARPT CLEAR     83  74  74 SW6       30.00F
N.O. LAKEFRONT CLEAR     88  75  65 W12       29.99F HX  97
N.O. DOWNTOWN* FAIR      84  75  74 SW5       30.00F
RESERVE*       FAIR      82  75  80 W5        30.00F
SLIDELL        CLEAR     79  76  90 CALM      29.98F
BATON ROUGE    CLEAR     80  75  84 SW7       30.00F
BOOTHVILLE     CLEAR     85  75  72 SW7       30.00F
BELLE CHASSE   CLEAR     78  75  90 W5        29.99F
BOGALUSA*        N/A     78  74  87 CALM      30.01F
GALLIANO*      NOT AVBL
NEW ROADS*     FAIR     N/A N/A N/A CALM      30.00F
GONZALES*      FAIR      78  78 100 CALM      29.99F
HAMMOND*       CLEAR     82  73  74 SW3       30.01F
HOUMA*         CLEAR     77  76  96 CALM      30.00F
PORT FOURCHON* SUNNY     86  73  66 SW5       30.01F

$$

LAZ041-044-053-054-290800-
SOUTHWEST LOUISIANA

CITY           SKY/WX    TMP DP  RH WIND       PRES   REMARKS
LAKE CHARLES   CLEAR     82  76  81 CALM      29.99F
LAFAYETTE      CLEAR     80  75  84 S5        30.00F
PATTERSON      CLEAR     77  73  88 CALM      30.02S
SALT POINT       N/A     85  75  72 CALM      29.99S
NEW IBERIA     CLEAR     80  76  87 CALM      30.01S
CHENAULT AIRPK CLEAR     78  75  92 CALM      30.00F

$$

LAZ027-028-290800-
CENTRAL LOUISIANA

CITY           SKY/WX    TMP DP  RH WIND       PRES   REMARKS
FORT POLK      CLEAR     80  75  86 SW3       30.00F
ALEXANDRIA INT CLEAR     79  75  87 CALM      29.99S
ALEXANDRIA     CLEAR     77  72  84 CALM      30.00F

$$

LAZ001-002-290800-
NORTHWEST LOUISIANA

CITY           SKY/WX    TMP DP  RH WIND       PRES   REMARKS
SHREVEPORT     CLEAR     83  72  69 SW7       29.99S
BARKSDALE AFB  CLEAR     84  73  69 S5        29.99R
DTN SHREVEPORT CLEAR     85  71  63 S7        29.99S

$$

LAZ014-016-290800-
NORTHEAST LOUISIANA

CITY           SKY/WX    TMP DP  RH WIND       PRES   REMARKS
MONROE         CLEAR     77  74  90 CALM      30.00S
TALLULAH       CLEAR     75  73  93 CALM      29.98F

$$



USA.gov is the U.S. government's official web portal to all federal, state and local government web resources and services.